www.pogodaiklimat.ru
Время
(UTC), дата
00 6.08
03 6.08
06 6.08
09 6.08
12 6.08
15 6.08
18 6.08
21 6.08
00 7.08
03 7.08
06 7.08
09 7.08
12 7.08
15 7.08
18 7.08
21 7.08
00 8.08
03 8.08
06 8.08
09 8.08
12 8.08
15 8.08
18 8.08
21 8.08
00 9.08
03 9.08
06 9.08
09 9.08
12 9.08
15 9.08
18 9.08
21 9.08
00 10.08
03 10.08
06 10.08
09 10.08
12 10.08
15 10.08
18 10.08
21 10.08
00 11.08
03 11.08
06 11.08
09 11.08
12 11.08
15 11.08
18 11.08
21 11.08
00 12.08
03 12.08
06 12.08
09 12.08
12 12.08
15 12.08
18 12.08
21 12.08
Ветер
(напр.,м/с)
Видим. Явления Облачность Т
(С)
Тd
(С)
f
(%)
Тe
(С)
Тes
(С)
Комфортность P
(гПа)
Po
(гПа)
Тmin
(С)
Tmax
(С)
R
(мм)
R24
(мм)
S
(см)
штиль 0
{1}
15 км ясно +18.4 +17.6 95 +19 +19 тепло 1019.1 1003.5
С 1-1
{2}
10 км 8/0
[Ci fib]
+19.0 +18.2 95 +22 +24 комфорт 1019.2 1003.6 +17.7
СВ 1-2
{3}
13 км 10/0
[Ci]
+25.5 +18.6 66 +30 +39 душно 1019.2 1003.9
В 3-5
{5}
19 км 10/0
[Ci]
+29.3 +21.6 63 +37 +46 очень
душно
1018.6 1003.5
В 3-4
{5}
50 км 10/4 600 м
[Cu med, cong Ci]
+30.9 +16.9 43 +34 +37 душно 1017.8 1002.8
В 2-2
{5}
50 км 10/1 600 м
[Cu med, cong Ci]
+29.7 +16.4 45 +33 +33 душно 1016.9 1001.9 +31.3
СЗ 1-1
{2}
10 км 10/0
[Ac trans Ci]
+24.4 +20.8 80 +30 +30 очень
душно
1017.0 1001.8
СЗ 1-2
{2}
10 км 8/1 600 м
[Sc Ac trans]
+21.9 +20.5 92 +28 +28 душно 1016.7 1001.3
СЗ 1-1
{2}
6000 м туман поземный 8/0
[Ac trans Ci]
+19.3 +18.7 96 +23 +23 комфорт 1015.6 1000.1
З 1-1
{1}
8000 м дымка 10/0
[Ac cast Ci]
+21.1 +19.9 93 +26 +28 душно 1014.8 999.4 +18.3
С 4-8
{9}
14 км 10/1 600 м
[Cu hum Ci]
+23.6 +15.9 62 +27 +31 жарко 1014.8 999.5
С 2-4
{8}
20 км 10/0
[Ci]
+26.7 +15.6 51 +30 +40 душно 1013.9 998.7
С 3-6
{7}
21 км 10/5 600 м
[Cu med, cong Ci]
+28.3 +16.0 47 +31 +34 душно 1013.0 997.9
С 4-8
{9}
26 км 10/1 600 м
[Cb calv Ac cast Ci ing]
+24.1 +14.7 56 +27 +27 жарко 1013.0 997.7 +28.6
С 3-5
{8}
10 км 9/9 720 м
[Sc]
+21.1 +14.7 67 +24 +24 комфорт 1013.7 998.3
С 3-5
{8}
10 км 3/0
[Ci ing]
+17.6 +12.9 74 +18 +18 тепло 1013.7 998.0
С 3-5
{7}
10 км 8/0
[Ci ing]
+15.1 +12.5 84 +14 +14 тепло 1013.9 998.0
С 5-7
{10}
50 км 9/9 700 м
[Sc]
+15.3 +12.0 81 +14 +14 тепло 1013.8 997.9 +14.3
С 5-7
{11}
50 км 8/8 720 м
[Sc]
+17.6 +11.0 65 +17 +18 тепло 1012.8 997.2
СВ 4-6
{10}
50 км 8/4 600 м
[Cu med, cong]
+20.1 +10.5 54 +22 +25 комфорт 1011.3 995.8
СВ 4-6
{10}
50 км 8/3 600 м
[Cu med, cong Ci ing]
+21.3 +9.9 48 +23 +25 комфорт 1010.1 994.6
СВ 4-6
{9}
50 км 4/3 600 м
[Sc diur, vesp Ac trans]
+20.1 +9.4 50 +21 +22 комфорт 1009.5 994.0 +22.0
С 2-3
{6}
10 км ясно +14.9 +9.9 72 +15 +15 тепло 1009.2 993.4
С 2-3
{4}
10 км 10/0
[Ci]
+12.5 +9.3 81 +12 +12 тепло 1007.5 991.7
С 3-4
{7}
10 км 10/3 600 м
[Sc Ci fib]
+12.2 +9.9 86 +11 +11 тепло 1006.4 990.6
С 4-7
{8}
50 км 10/10 700 м
[Sc]
+11.8 +10.0 89 +10 +10 по сезону 1005.7 989.9 +11.4 +11.4
С 4-7
{10}
50 км 10/10 720 м
[Sc]
+14.3 +11.5 83 +13 +13 тепло 1005.0 989.3
СЗ 4-8
{11}
50 км 9/9 750 м
[Sc]
+17.7 +11.1 65 +17 +18 тепло 1004.5 989.0
С 3-6
{10}
12 км в посл. час ливневой дождь 10/10 480 м
[Sc]
+17.1 +10.4 65 +17 +17 тепло 1004.6 989.0
С 1-2
{6}
21 км {ливн. дождь} 9/9 660 м
[Sc]
+16.4 +11.2 71 +17 +17 тепло 1004.1 988.5 +18.2 0.4
С 1-2
{3}
10 км {ливн. дождь} 3/3 600 м
[Sc]
+14.8 +11.4 80 +15 +15 тепло 1004.5 988.8
С 2-3
{6}
10 км 3/0
[Ac trans]
+12.5 +9.8 84 +12 +12 тепло 1003.9 988.1
СЗ 2-3
{5}
10 км 6/0
[Ci ing]
+11.4 +10.0 91 +10 +10 по сезону 1003.7 987.8
С 3-6
{9}
50 км 8/0
[Ci]
+12.5 +10.2 86 +11 +12 прохладно 1003.1 987.4 +11.2
С 6-12
{13}
50 км 9/8 800 м
[Sc Ac trans]
+15.6 +9.0 65 +14 +15 прохладно 1002.8 987.2
СЗ 6-12
{14}
50 км 10/5 600 м
[Cu med, cong Ac trans Cc]
+18.4 +8.1 51 +18 +19 по сезону 1002.8 987.4
С 6-12
{14}
50 км 9/8 800 м
[Cu med, cong Ci fib]
+20.5 +8.5 46 +22 +22 комфорт 1003.1 987.7
С 5-7
{13}
50 км 9/8 840 м
[Sc Ac trans]
+18.7 +8.0 50 +19 +19 тепло 1004.5 989.0 +20.8
С 5-7
{7}
10 км 9/9 840 м
[Sc]
+16.8 +7.4 54 +16 +16 по сезону 1005.3 989.7
С 4-6
{7}
10 км ясно +12.8 +8.4 75 +11 +11 прохладно 1005.9 990.1
СЗ 4-5
{7}
10 км ясно +11.0 +8.0 82 +9 +9 прохладно 1006.9 991.0
СЗ 3-5
{6}
50 км ясно +11.3 +8.0 80 +10 +11 прохладно 1007.7 991.8 +9.9
С 6-9
{11}
50 км ясно +17.6 +8.8 56 +17 +20 по сезону 1007.7 992.1
СЗ 5-8
{11}
50 км 1/1 600 м
[Cu hum]
+20.2 +7.8 45 +21 +27 комфорт 1008.0 992.5
С 5-7
{10}
50 км 1/1 600 м
[Cu med, cong]
+21.2 +7.4 41 +22 +25 комфорт 1008.8 993.3
С 5-7
{9}
50 км ясно +19.8 +7.0 43 +20 +21 тепло 1008.9 993.3 +21.6
СЗ 2-4
{7}
10 км ясно +14.1 +7.4 64 +14 +14 по сезону 1010.0 994.2
С 1-2
{4}
10 км ясно +10.6 +7.4 81 +10 +10 прохладно 1010.3 994.3
СЗ 1-1
{3}
10 км ясно +9.7 +7.8 88 +9 +9 прохладно 1010.8 994.7
СЗ 1-1
{3}
50 км 9/0
[Ci fib]
+11.2 +8.5 83 +11 +13 прохладно 1011.5 995.5 +9.0
СВ 1-2
{3}
50 км 9/0
[Ci fib]
+17.3 +9.3 59 +18 +27 по сезону 1010.8 995.1
СВ 2-4
{7}
50 км 10/3 600 м
[Cu med, cong Ci ing]
+19.5 +7.6 46 +21 +27 комфорт 1010.5 994.9
СВ 2-3
{6}
50 км 8/8 720 м
[Sc]
+19.0 +7.0 46 +20 +21 по сезону 1010.9 995.3
СВ 2-3
{5}
50 км 8/8 700 м
[Sc]
+17.7 +6.4 47 +18 +18 по сезону 1011.2 995.5 +20.3
штиль 0
{2}
10 км ясно +13.6 +8.0 69 +13 +13 по сезону 1011.7 995.8
штиль 0
{1}
10 км ясно +10.4 +9.0 91 +10 +10 прохладно 1012.3 996.3
Местоположение метеостанции Сарапул (Удмуртия, Россия): широта 56.47 долгота 53.73 высота над уровнем моря 133 м.
В архиве по умолчанию представлена погода в Сарапуле за последнюю неделю. Архивные данные за месяц целиком и за предыдущие месяцы, начиная с января 2011 года, Вы можете получить, выбрав интересующий диапазон дат из раскрывающегося списка и нажав кнопку "Найти!".
*Определитесь, кто Вы:
Внимание! Время в таблицах - всемирное. Для получения местного времени необходимо прибавить поправку, которая равна 4 ч.
Смотрите также архив погоды в соседних городах и на ближайших метеорологических станциях:
Партнеры нашего сайта:      
Пояснения к столбцам:
  • Ветер - указаны скорость ветра в м/с - средняя за 10 мин, порывы в срок и между сроками (в фигурных скобках) и направление, откуда дует ветер: С - северный,
  • СВ - северо-восточный, В - восточный, ЮВ - юго-восточный, Ю - южный, ЮЗ - юго-западный, З - западный, СЗ - северо-западный.
  • Видимость - горизонтальная дальность видимости в метрах или километрах. При видимости от 1 до 10 км при отсутствии осадков обычно наблюдается дымка, при ухудшении видимости до 1 км и менее - туман. В сухую погоду видимость может ухудшаться дымом, пылью или мглою.
  • Явления - указаны атмосферные явления, наблюдавшиеся в срок или в последний час перед сроком; фигурными скобками обозначены явления, наблюдавшиеся между сроками (за 1-3 часа до срока); квадратными скобками обозначены град или гололедные отложения с указанием их диаметра в мм.
  • Облачность - указаны через наклонную черту общая и нижняя облачность в баллах и высота нижней границы облаков в метрах; квадратными скобками обозначены формы облаков: Ci - перистые, Cs - перисто-слоистые, Cc - перисто-кучевые, Ac - высококучевые, As - высокослоистые, Sc - слоисто-кучевые, Ns - слоисто-дождевые, Cu - кучевые, Cb - кучево-дождевые. Подробнее классификацию облаков см. в Атласе облаков (PDF).
  • T - Температура воздуха - температура, измеренная на высоте 2 м над землей.
  • Td - Температура точки росы - температура, при понижении до которой содержащийся в воздухе водяной пар достигнет насыщения.
  • f - Относительная влажность воздуха - влажноcть воздуха, измеренная на высоте 2 м над землей.
  • Te - Эффективная температура - температура, которую ощущает одетый по сезону человек в тени. Характеристика душности погоды. При расчете учитывается влияние влажности воздуха и скорости ветра на теплоощущения человека.
  • Tes - Эффективная температура на солнце - температура, которую ощущает человек, с поправкой на солнечный нагрев. Характеристика знойности погоды. Зависит от высоты солнца над горизонтом, облачности и скорости ветра. Ночью, в пасмурную погоду, а также при ветре 12 м/с и более поправка равна нулю.
  • P - Атмосферное давление - приведенное к уровню моря атмосферное давление.
  • Po - Атмосферное давление - измеренное на уровне метеостанции атмосферное давление.
  • Tmin - Минимальная температура - минимум температуры воздуха на высоте 2 м над землей.
  • Tmax - Максимальная температура - максимум температуры воздуха на высоте 2 м над землей.
  • R - Количество осадков - Количество выпавших осадков за период времени, мм. При наведении курсора мыши на число - период времени, за который выпало указанное количество осадков.
  • R24 - Количество осадков - Количество выпавших осадков за 24 часа, мм.
  • S - Снежный покров - Высота снежного покрова, см. При наведении курсора мыши на число - состояние снежного покрова и степень покрытия местности в баллах.